User: anonymous   Login
Location: Brachstadt
(48.6975°N, 10.6755°E)
Time: 15:21:12
(UTC+00:00)
Language:

NOSS 3-2 (A) - Orbit

View from above orbital plane
View from above orbital plane
View from above satellite
View from above satellite

Ground track
Ground track

The orbit data is extracted from the following two-line orbital elements,

1 28095U 03054A   21165.93684332 0.00000000  00000-0  00000-0 0    02
2 28095  63.4157 183.5449 0438538 359.8974   0.1026 13.41404161    06
Epoch (UTC): 14 June 2021 22:29:03
Eccentricity: 0.0438538
inclination: 63.4157°
perigee height: 776 km
apogee height: 1432 km
right ascension of ascending node: 183.5449°
argument of perigee: 359.8974°
revolutions per day: 13.41404161
mean anomaly at epoch: 0.1026°
orbit number at epoch: 0

The dashed part of the orbit path shows where the satellite is in the earth's shadow,  

DLR